TimePDT,TemperatureF,Dew PointF,Humidity,Sea Level PressureIn,VisibilityMPH,Wind Direction,Wind SpeedMPH,Gust SpeedMPH,PrecipitationIn,Events,Conditions,WindDirDegrees,DateUTC
12:53 AM,54.0,53.1,97,29.69,8.0,ENE,8.1,-,0.00,Rain,Light Rain,70,2012-11-01 07:53:00
1:19 AM,53.6,51.8,94,29.69,3.0,ESE,4.6,16.1,0.04,Rain,Rain,110,2012-11-01 08:19:00
1:44 AM,53.6,51.8,94,29.70,10.0,SE,9.2,-,0.06,Rain,Light Rain,140,2012-11-01 08:44:00
1:53 AM,53.6,50.0,88,29.70,10.0,SSE,11.5,-,N/A,Rain,Light Rain,150,2012-11-01 08:53:00
2:18 AM,53.6,50.0,88,29.70,10.0,ESE,9.2,-,0.00,Rain,Light Rain,120,2012-11-01 09:18:00
2:44 AM,53.6,50.0,88,29.71,10.0,SE,6.9,-,0.01,Rain,Light Rain,130,2012-11-01 09:44:00
2:53 AM,53.1,50.0,89,29.72,10.0,ESE,6.9,-,0.01,Rain,Light Rain,120,2012-11-01 09:53:00
3:20 AM,51.8,50.0,94,29.71,10.0,ENE,3.5,-,0.00,,Overcast,60,2012-11-01 10:20:00
3:50 AM,51.8,50.0,94,29.71,10.0,NE,4.6,-,0.01,Rain,Light Rain,50,2012-11-01 10:50:00
3:53 AM,52.0,50.0,93,29.72,10.0,NE,4.6,-,0.01,Rain,Light Rain,50,2012-11-01 10:53:00
4:14 AM,51.8,50.0,94,29.71,7.0,NE,5.8,-,0.01,Rain,Light Rain,50,2012-11-01 11:14:00
4:45 AM,51.8,51.8,100,29.71,2.5,ENE,8.1,-,0.09,Rain,Rain,60,2012-11-01 11:45:00
4:53 AM,51.8,51.8,100,29.71,3.0,NE,8.1,-,N/A,Rain,Rain,50,2012-11-01 11:53:00
5:12 AM,51.8,51.8,100,29.71,2.5,NE,8.1,-,0.08,Rain,Heavy Rain,40,2012-11-01 12:12:00
5:32 AM,51.8,51.8,100,29.72,5.0,ENE,8.1,-,0.20,Rain,Rain,60,2012-11-01 12:32:00
5:53 AM,52.0,51.1,97,29.73,3.0,ENE,8.1,-,0.28,Rain,Rain,70,2012-11-01 12:53:00
6:11 AM,51.8,51.8,100,29.72,2.5,ENE,6.9,-,0.08,Rain,Rain,70,2012-11-01 13:11:00
6:26 AM,51.8,51.8,100,29.72,1.8,ENE,6.9,-,0.17,Rain,Rain,70,2012-11-01 13:26:00
6:39 AM,51.8,51.8,100,29.72,1.8,East,5.8,-,0.24,Rain,Rain,80,2012-11-01 13:39:00
6:49 AM,51.8,51.8,100,29.73,3.0,ESE,5.8,-,0.26,Rain,Light Rain,110,2012-11-01 13:49:00
6:53 AM,52.0,52.0,100,29.74,4.0,East,4.6,-,0.26,Rain,Light Rain,90,2012-11-01 13:53:00
7:05 AM,53.6,51.8,94,29.73,2.5,East,5.8,-,0.03,Rain,Light Rain,80,2012-11-01 14:05:00
7:12 AM,53.6,51.8,94,29.73,3.0,East,8.1,-,0.03,Rain,Light Rain,80,2012-11-01 14:12:00
7:53 AM,53.1,52.0,96,29.75,5.0,ENE,8.1,-,0.04,Rain,Light Rain,70,2012-11-01 14:53:00
8:05 AM,53.6,51.8,94,29.74,8.0,ENE,5.8,-,0.00,,Overcast,70,2012-11-01 15:05:00
8:21 AM,53.6,51.8,94,29.75,1.8,ENE,4.6,-,0.00,Rain,Light Rain,60,2012-11-01 15:21:00
8:31 AM,53.6,51.8,94,29.75,2.0,ENE,6.9,-,0.01,Rain,Light Rain,60,2012-11-01 15:31:00
8:41 AM,53.6,51.8,94,29.75,5.0,ENE,6.9,-,0.01,,Overcast,60,2012-11-01 15:41:00
8:53 AM,53.1,52.0,96,29.77,6.0,ENE,5.8,-,0.01,,Overcast,60,2012-11-01 15:53:00
9:53 AM,54.0,53.1,97,29.79,4.0,ENE,5.8,-,0.01,,Overcast,70,2012-11-01 16:53:00
10:40 AM,55.4,53.6,94,29.80,10.0,East,4.6,-,N/A,,Mostly Cloudy,80,2012-11-01 17:40:00
10:53 AM,55.0,53.1,93,29.82,2.5,ENE,5.8,-,0.00,Rain,Light Rain,70,2012-11-01 17:53:00
11:03 AM,55.4,53.6,94,29.81,8.0,East,4.6,-,0.00,,Overcast,80,2012-11-01 18:03:00
11:37 AM,55.4,51.8,88,29.83,10.0,South,12.7,-,0.00,,Overcast,170,2012-11-01 18:37:00
11:53 AM,55.0,53.1,93,29.86,10.0,SSE,8.1,-,0.00,,Overcast,160,2012-11-01 18:53:00
12:26 PM,55.4,53.6,94,29.86,10.0,South,6.9,-,N/A,,Overcast,170,2012-11-01 19:26:00
12:49 PM,55.4,53.6,94,29.87,8.0,South,10.4,-,N/A,,Overcast,180,2012-11-01 19:49:00
12:53 PM,55.0,53.1,93,29.88,9.0,South,10.4,-,N/A,,Overcast,180,2012-11-01 19:53:00
1:41 PM,55.4,53.6,94,29.88,10.0,South,9.2,-,0.01,,Overcast,180,2012-11-01 20:41:00
1:51 PM,55.4,53.6,94,29.88,10.0,South,10.4,-,0.01,,Overcast,190,2012-11-01 20:51:00
1:53 PM,55.9,54.0,93,29.89,10.0,South,11.5,-,0.01,,Overcast,190,2012-11-01 20:53:00
2:53 PM,57.0,54.0,89,29.90,10.0,South,10.4,-,0.00,,Overcast,190,2012-11-01 21:53:00
3:00 PM,57.2,53.6,88,29.89,10.0,South,8.1,-,N/A,,Overcast,190,2012-11-01 22:00:00
3:53 PM,55.9,54.0,93,29.91,10.0,SSW,8.1,-,N/A,,Mostly Cloudy,210,2012-11-01 22:53:00
4:13 PM,57.2,53.6,88,29.90,10.0,SSW,5.8,-,N/A,,Scattered Clouds,200,2012-11-01 23:13:00
4:38 PM,55.4,53.6,94,29.90,10.0,South,4.6,-,N/A,,Mostly Cloudy,180,2012-11-01 23:38:00
4:53 PM,55.9,53.1,90,29.92,10.0,South,4.6,-,N/A,,Overcast,170,2012-11-01 23:53:00
5:04 PM,55.4,53.6,94,29.91,8.0,South,6.9,-,0.00,Rain,Light Rain,180,2012-11-02 00:04:00
5:49 PM,55.4,53.6,94,29.93,7.0,South,8.1,-,0.01,Rain,Light Rain,190,2012-11-02 00:49:00
5:53 PM,55.0,53.1,93,29.94,10.0,South,6.9,-,0.01,,Overcast,180,2012-11-02 00:53:00
6:00 PM,55.4,53.6,94,29.93,10.0,South,6.9,-,N/A,,Overcast,180,2012-11-02 01:00:00
6:17 PM,55.4,53.6,94,29.94,10.0,South,5.8,-,N/A,,Overcast,180,2012-11-02 01:17:00
6:31 PM,55.4,53.6,94,29.94,8.0,South,9.2,-,N/A,,Overcast,180,2012-11-02 01:31:00
6:40 PM,55.4,53.6,94,29.95,2.5,South,8.1,-,0.02,Rain,Light Rain,180,2012-11-02 01:40:00
6:44 PM,55.4,53.6,94,29.95,3.0,South,6.9,-,0.02,Rain,Light Rain,180,2012-11-02 01:44:00
6:53 PM,55.0,54.0,96,29.96,7.0,South,9.2,-,0.02,Rain,Light Rain,190,2012-11-02 01:53:00
7:05 PM,55.4,53.6,94,29.95,10.0,South,10.4,-,0.00,,Overcast,190,2012-11-02 02:05:00
7:53 PM,55.0,53.1,93,29.98,10.0,South,9.2,-,0.00,,Overcast,180,2012-11-02 02:53:00
8:38 PM,55.4,53.6,94,29.97,10.0,South,8.1,-,N/A,,Overcast,170,2012-11-02 03:38:00
8:51 PM,55.4,53.6,94,29.97,10.0,South,8.1,-,N/A,,Overcast,170,2012-11-02 03:51:00
8:53 PM,55.0,53.1,93,29.99,10.0,South,9.2,-,N/A,,Overcast,170,2012-11-02 03:53:00
9:07 PM,53.6,53.6,100,29.98,10.0,South,9.2,-,N/A,,Overcast,170,2012-11-02 04:07:00
9:23 PM,55.4,51.8,88,29.99,10.0,South,6.9,-,N/A,,Overcast,170,2012-11-02 04:23:00
9:53 PM,55.0,52.0,89,30.01,10.0,SSE,5.8,-,N/A,,Overcast,160,2012-11-02 04:53:00
10:19 PM,53.6,51.8,94,30.00,10.0,SE,5.8,-,N/A,,Overcast,140,2012-11-02 05:19:00
10:53 PM,54.0,52.0,93,30.01,10.0,SE,4.6,-,N/A,,Overcast,140,2012-11-02 05:53:00
11:34 PM,53.6,51.8,94,29.99,10.0,East,4.6,-,N/A,,Overcast,100,2012-11-02 06:34:00
11:41 PM,53.6,51.8,94,29.99,10.0,ESE,4.6,-,N/A,,Overcast,110,2012-11-02 06:41:00
11:49 PM,53.6,51.8,94,30.00,10.0,ESE,5.8,-,N/A,,Overcast,110,2012-11-02 06:49:00
11:53 PM,54.0,52.0,93,30.01,10.0,ESE,5.8,-,N/A,,Overcast,120,2012-11-02 06:53:00